• In Hungary
  • List of Countries
  • For 7 days
  • Water Temperature
  • Satellite Maps
  • Weather Map
  • News
  • Weather Widgets
  • user-avatar
    Login

    Hourly Weather Voshodyaschiy

    Today, 23 September, Sunday

    Time Temperature Precipitation Wind Pressure Humidity
    00:00 +15°C° 0 mm 1 mps 759 mmHg 69%
    01:00 +15°C° 0 mm 1 mps 759 mmHg 72%
    02:00 +15°C° 0 mm 2 mps 759 mmHg 74%
    03:00 +15°C° 0 mm 2 mps 759 mmHg 75%
    04:00 +14°C° 0 mm 2 mps 760 mmHg 69%
    05:00 +14°C° 0 mm 2 mps 760 mmHg 71%
    06:00 +14°C° 0 mm 2 mps 760 mmHg 73%
    07:00 +14°C° 0 mm 2 mps 760 mmHg 75%
    08:00 +17°C° 0 mm 2 mps 760 mmHg 69%
    09:00 +19°C° 0 mm 2 mps 760 mmHg 64%
    10:00 +21°C° 0 mm 2 mps 759 mmHg 58%
    11:00 +23°C° 0 mm 2 mps 759 mmHg 55%
    12:00 +24°C° 0 mm 2 mps 759 mmHg 52%
    13:00 +25°C° 0 mm 2 mps 759 mmHg 49%
    14:00 +25°C° 0 mm 2 mps 759 mmHg 48%
    15:00 +26°C° 0 mm 2 mps 758 mmHg 46%
    16:00 +26°C° 0 mm 2 mps 758 mmHg 44%
    17:00 +24°C° 0 mm 2 mps 758 mmHg 47%
    18:00 +23°C° 0 mm 2 mps 758 mmHg 50%
    19:00 +20°C° 0 mm 2 mps 758 mmHg 53%
    20:00 +19°C° 0 mm 2 mps 758 mmHg 52%
    21:00 +19°C° 0 mm 2 mps 758 mmHg 51%
    22:00 +18°C° 0 mm 2 mps 757 mmHg 50%
    23:00 +18°C° 0 mm 2 mps 757 mmHg 47%

    Tomorrow, 24 September, Monday

    Time Temperature Precipitation Wind Pressure Humidity
    00:00 +17°C° 0 mm 2 mps 757 mmHg 45%
    01:00 +17°C° 0 mm 3 mps 757 mmHg 42%
    02:00 +16°C° 0 mm 3 mps 757 mmHg 41%
    03:00 +16°C° 0 mm 3 mps 757 mmHg 40%
    04:00 +14°C° 0 mm 3 mps 757 mmHg 39%
    05:00 +14°C° 0 mm 3 mps 757 mmHg 40%
    06:00 +14°C° 0 mm 3 mps 756 mmHg 40%
    07:00 +14°C° 0 mm 3 mps 756 mmHg 41%
    08:00 +17°C° 0 mm 4 mps 756 mmHg 38%
    09:00 +19°C° 0 mm 5 mps 756 mmHg 35%
    10:00 +22°C° 0 mm 7 mps 756 mmHg 32%
    11:00 +23°C° 0 mm 7 mps 755 mmHg 31%
    12:00 +24°C° 0 mm 7 mps 755 mmHg 29%
    13:00 +24°C° 0 mm 8 mps 755 mmHg 27%
    14:00 +24°C° 0 mm 7 mps 755 mmHg 28%
    15:00 +24°C° 0 mm 6 mps 755 mmHg 29%
    16:00 +24°C° 0 mm 6 mps 755 mmHg 30%
    17:00 +22°C° 0 mm 5 mps 755 mmHg 38%
    18:00 +20°C° 0 mm 5 mps 755 mmHg 46%
    19:00 +19°C° 0 mm 4 mps 755 mmHg 54%
    20:00 +18°C° 0 mm 4 mps 755 mmHg 59%
    21:00 +17°C° 0 mm 3 mps 755 mmHg 64%
    22:00 +17°C° 0 mm 3 mps 755 mmHg 69%
    23:00 +16°C° 0 mm 2 mps 755 mmHg 74%

    Day after tomorrow, 25 September, Tuesday

    Time Temperature Precipitation Wind Pressure Humidity
    00:00 +15°C° 0 mm 2 mps 755 mmHg 79%
    01:00 +15°C° 0 mm 2 mps 755 mmHg 85%
    02:00 +14°C° 0 mm 2 mps 755 mmHg 87%
    03:00 +13°C° 0 mm 2 mps 755 mmHg 89%
    04:00 +13°C° 0 mm 2 mps 755 mmHg 92%
    05:00 +13°C° 0 mm 2 mps 755 mmHg 92%
    06:00 +12°C° 0 mm 2 mps 755 mmHg 93%
    07:00 +12°C° 0 mm 2 mps 755 mmHg 93%
    08:00 +14°C° 0 mm 2 mps 755 mmHg 82%
    09:00 +14°C° 0 mm 3 mps 755 mmHg 71%
    10:00 +17°C° 0 mm 3 mps 755 mmHg 60%
    11:00 +19°C° 0 mm 4 mps 755 mmHg 52%
    12:00 +20°C° 0 mm 4 mps 755 mmHg 44%
    13:00 +21°C° 0 mm 5 mps 755 mmHg 36%
    14:00 +22°C° 0 mm 5 mps 755 mmHg 33%
    15:00 +22°C° 0 mm 5 mps 755 mmHg 30%
    16:00 +22°C° 0 mm 5 mps 755 mmHg 27%
    17:00 +21°C° 0 mm 5 mps 755 mmHg 29%
    18:00 +19°C° 0 mm 4 mps 754 mmHg 32%
    19:00 +17°C° 0 mm 3 mps 754 mmHg 34%
    20:00 +17°C° 0 mm 3 mps 754 mmHg 35%
    21:00 +17°C° 0 mm 3 mps 754 mmHg 35%
    22:00 +16°C° 0 mm 3 mps 754 mmHg 36%
    23:00 +16°C° 0 mm 3 mps 754 mmHg 36%

    26 September, Wednesday

    Time Temperature Precipitation Wind Pressure Humidity
    00:00 +15°C° 0 mm 4 mps 754 mmHg 36%
    01:00 +15°C° 0 mm 4 mps 754 mmHg 36%
    02:00 +17°C° 0.1 mm 4 mps 755 mmHg 39%
    03:00 +17°C° 0.1 mm 4 mps 755 mmHg 42%
    04:00 +17°C° 0.1 mm 4 mps 755 mmHg 46%
    05:00 +17°C° 0.1 mm 3 mps 755 mmHg 51%
    06:00 +17°C° 0.1 mm 3 mps 755 mmHg 56%
    07:00 +16°C° 0.1 mm 2 mps 756 mmHg 61%
    08:00 +17°C° 0.1 mm 2 mps 756 mmHg 61%
    09:00 +17°C° 0.1 mm 2 mps 756 mmHg 62%
    10:00 +18°C° 0.1 mm 2 mps 757 mmHg 62%
    11:00 +17°C° 0.1 mm 3 mps 757 mmHg 65%
    12:00 +15°C° 0.1 mm 4 mps 757 mmHg 67%
    13:00 +15°C° 0.1 mm 5 mps 758 mmHg 70%
    14:00 +14°C° 0 mm 4 mps 758 mmHg 71%
    15:00 +14°C° 0 mm 4 mps 758 mmHg 72%
    16:00 +13°C° 0 mm 4 mps 759 mmHg 73%
    17:00 +12°C° 0.2 mm 4 mps 759 mmHg 75%
    18:00 +12°C° 0.2 mm 3 mps 759 mmHg 77%
    19:00 +11°C° 0.2 mm 3 mps 759 mmHg 79%
    20:00 +11°C° 0.2 mm 3 mps 760 mmHg 80%
    21:00 +11°C° 0.2 mm 3 mps 760 mmHg 81%
    22:00 +11°C° 0.2 mm 3 mps 760 mmHg 82%
    23:00 +10°C° 0.3 mm 3 mps 760 mmHg 83%

    27 September, Thursday

    Time Temperature Precipitation Wind Pressure Humidity
    00:00 +10°C° 0.3 mm 3 mps 760 mmHg 83%
    01:00 +10°C° 0.3 mm 2 mps 760 mmHg 84%
    02:00 +10°C° 0.6 mm 2 mps 760 mmHg 85%
    03:00 +10°C° 0.6 mm 2 mps 761 mmHg 86%
    04:00 +9°C° 0.6 mm 2 mps 761 mmHg 87%
    05:00 +9°C° 0.1 mm 2 mps 761 mmHg 86%
    06:00 +9°C° 0.1 mm 2 mps 761 mmHg 86%
    07:00 +10°C° 0.1 mm 1 mps 761 mmHg 85%
    08:00 +11°C° 0.2 mm 1 mps 761 mmHg 83%
    09:00 +11°C° 0.2 mm 1 mps 761 mmHg 80%
    10:00 +11°C° 0.2 mm 1 mps 761 mmHg 78%
    11:00 +12°C° 0.2 mm 1 mps 761 mmHg 77%
    12:00 +12°C° 0.2 mm 1 mps 760 mmHg 76%
    13:00 +12°C° 0.2 mm 2 mps 760 mmHg 74%
    14:00 +13°C° 0.1 mm 2 mps 760 mmHg 69%
    15:00 +13°C° 0.1 mm 2 mps 760 mmHg 63%
    16:00 +13°C° 0.1 mm 3 mps 760 mmHg 57%
    17:00 +12°C° 0 mm 3 mps 760 mmHg 62%
    18:00 +12°C° 0 mm 2 mps 759 mmHg 66%
    19:00 +10°C° 0 mm 2 mps 759 mmHg 70%
    20:00 +9°C° 0 mm 3 mps 759 mmHg 72%
    21:00 +9°C° 0 mm 3 mps 759 mmHg 74%
    22:00 +9°C° 0 mm 3 mps 759 mmHg 75%
    23:00 +9°C° 0 mm 3 mps 759 mmHg 73%

    28 September, Friday

    Time Temperature Precipitation Wind Pressure Humidity
    00:00 +9°C° 0 mm 3 mps 758 mmHg 70%
    01:00 +9°C° 0 mm 3 mps 758 mmHg 68%
    02:00 +9°C° 0 mm 3 mps 758 mmHg 66%
    03:00 +8°C° 0 mm 3 mps 758 mmHg 64%
    04:00 +7°C° 0 mm 4 mps 758 mmHg 63%
    05:00 +7°C° 0 mm 4 mps 758 mmHg 62%
    06:00 +7°C° 0 mm 4 mps 757 mmHg 61%
    07:00 +7°C° 0 mm 4 mps 757 mmHg 60%
    08:00 +8°C° 0 mm 5 mps 757 mmHg 55%
    09:00 +10°C° 0 mm 5 mps 757 mmHg 50%
    10:00 +11°C° 0 mm 6 mps 758 mmHg 44%
    11:00 +13°C° 0 mm 6 mps 757 mmHg 44%
    12:00 +14°C° 0 mm 6 mps 757 mmHg 43%
    13:00 +16°C° 0 mm 6 mps 757 mmHg 42%
    14:00 +16°C° 0 mm 5 mps 757 mmHg 42%
    15:00 +16°C° 0 mm 5 mps 757 mmHg 43%
    16:00 +16°C° 0 mm 5 mps 757 mmHg 43%
    17:00 +15°C° 0 mm 4 mps 757 mmHg 47%
    18:00 +14°C° 0 mm 4 mps 757 mmHg 52%
    19:00 +12°C° 0 mm 3 mps 757 mmHg 56%
    20:00 +12°C° 0 mm 3 mps 757 mmHg 57%
    21:00 +12°C° 0 mm 3 mps 757 mmHg 58%
    22:00 +11°C° 0 mm 4 mps 757 mmHg 58%
    23:00 +11°C° 0 mm 4 mps 757 mmHg 58%
    Show more